{"data":{"norad_id":65460,"intl_designator":"2025-195C","name":"STARLINK-34850","alt_names":[],"object_type":"PAYLOAD","status":"ACTIVE","operator":null,"country":"US","launch_date":"2025-09-03","launch_site_code":"AFETR","launch_vehicle":null,"mission":null,"orbit_class":"UNKNOWN","rcs_meters":null,"size_class":null,"mass_kg":null,"dimensions":null,"purposes":["comms"],"wikipedia_slug":null,"has_3d_model":false,"image_url":null,"decayed_at":null,"tle_current":{"epoch":"2026-09-20T21:24:46.619136Z","epoch_age_seconds":81006,"freshness":"FRESH","line1":"1 65460U 25195C   26263.89220624  .00009932  00000+0  30467-3 0  9990","line2":"2 65460  53.1596  67.6871 0001546  85.9678 274.1501 15.34404449 59930","mean_motion":15.34404449,"eccentricity":0.0001546,"inclination_deg":53.1596,"raan_deg":67.6871,"arg_perigee_deg":85.9678,"mean_anomaly_deg":274.1501,"bstar":0.00030467,"rev_number":5993,"period_min":93.847485970109,"perigee_km":461.63242501666,"apogee_km":463.74760873028,"semimajor_km":6840.8270168735,"source":"CELESTRAK","updated_at":"2026-09-21T09:00:35.614019Z"}}}